Seleccione otro periodo ( Ocultar esta area )

Unidades Periodo Rango personalizado Directo a
Metrico Inglés Ambos
Diario Semanal Mensual Anual
Use ambos selectores de fecha para rango personalizado
Anterior Dia
Con esta fecha

WeatherUnderground gráficos para este periodo ( click aquí ) Cargando el gráfico !


Diario Resumen para Sabado May 25 2024
Hora Temp. ( °C ) Punto de rocio. ( °C ) Viento ( km/h ) Dirección Ráfaga ( km/h ) Presión ( hPa ) Humid.( % ) Lluvia ( cm )
Max23,2 18,1 32,0 WNW ( 1074/3524 ) 32,0 1018,5 85 -
Media20,4 16,7 15,7 WNW #78/225 18,0 1017,6 80 -
Min18,4 15,5 3,0   6,0 1015,9 67 -
Diario Tabular detalles de Sabado May 25 2024
Hora Temp. ( °C ) Punto de rocio. ( °C ) Viento ( km/h ) Dirección Ráfaga ( km/h ) Presión ( hPa ) Humid.( % ) Lluvia ( cm )
00:04 19,4 16,5 8,0 WNW 11,0 1017,8 83 -
00:09 19,3 16,4 6,0 WNW 10,0 1017,8 83 -
00:14 19,3 16,3 8,0 WNW 8,0 1017,9 83 -
00:19 19,1 15,9 5,0 WNW 8,0 1017,9 82 -
00:24 19,1 15,9 13,0 WNW 13,0 1017,8 82 -
00:29 19,2 15,8 13,0 WNW 13,0 1017,9 81 -
00:34 19,2 15,9 13,0 WNW 13,0 1017,9 81 -
00:39 19,3 15,9 11,0 WNW 13,0 1017,9 81 -
00:44 19,3 15,7 10,0 WNW 13,0 1017,9 80 -
00:49 19,3 15,9 8,0 WNW 11,0 1017,9 81 -
00:54 19,3 16,0 11,0 WNW 11,0 1018,0 81 -
00:59 19,3 16,0 11,0 WNW 11,0 1018,0 81 -
01:04 19,3 16,1 13,0 WNW 13,0 1017,9 82 -
01:09 19,2 16,1 11,0 NW 13,0 1018,0 82 -
01:14 19,2 16,1 8,0 WNW 13,0 1017,9 82 -
01:19 19,2 16,0 11,0 WNW 13,0 1017,9 82 -
01:24 19,2 16,2 15,0 WNW 15,0 1017,9 83 -
01:29 19,1 16,2 13,0 WNW 15,0 1017,9 83 -
01:34 19,2 16,2 15,0 WNW 15,0 1017,9 83 -
01:39 19,2 16,3 15,0 WNW 16,0 1017,8 83 -
01:44 19,2 16,3 18,0 Oeste 18,0 1017,8 83 -
01:49 19,2 16,4 16,0 Oeste 18,0 1017,8 84 -
01:54 19,2 16,4 19,0 Oeste 21,0 1017,8 84 -
01:59 19,2 16,4 18,0 WNW 21,0 1017,8 84 -
02:04 19,2 16,4 15,0 WNW 21,0 1017,8 84 -
02:09 19,1 16,3 15,0 WNW 18,0 1017,8 84 -
02:14 19,0 16,4 15,0 WNW 15,0 1017,8 85 -
02:19 19,0 16,4 10,0 Oeste 15,0 1017,9 85 -
02:24 18,9 16,4 10,0 Oeste 15,0 1017,9 85 -
02:29 18,9 16,4 13,0 WNW 13,0 1017,9 85 -
02:34 18,9 16,3 13,0 Oeste 13,0 1017,9 85 -
02:39 18,9 16,3 13,0 Oeste 13,0 1017,8 85 -
02:44 18,9 16,3 11,0 WNW 13,0 1017,8 85 -
02:49 18,9 16,3 13,0 WNW 13,0 1017,8 85 -
02:54 18,9 16,1 10,0 Oeste 13,0 1017,8 84 -
02:59 18,8 16,1 8,0 Oeste 13,0 1017,8 84 -
03:04 18,8 16,0 8,0 WNW 10,0 1017,8 84 -
03:09 18,7 15,9 13,0 Oeste 15,0 1017,8 84 -
03:14 18,6 15,8 11,0 Oeste 15,0 1017,9 84 -
03:19 18,6 15,8 11,0 WNW 15,0 1017,9 84 -
03:24 18,6 15,8 11,0 WNW 13,0 1017,9 84 -
03:29 18,6 15,8 11,0 WNW 13,0 1017,9 84 -
03:34 18,6 15,8 11,0 Oeste 13,0 1017,9 84 -
03:39 18,6 15,8 11,0 WNW 13,0 1017,8 84 -
03:44 18,6 15,8 13,0 WNW 13,0 1017,8 84 -
03:49 18,6 15,8 15,0 Oeste 16,0 1017,7 84 -
03:54 18,6 15,8 16,0 WNW 16,0 1017,7 84 -
03:59 18,6 15,7 15,0 WNW 16,0 1017,7 83 -
04:04 18,6 15,7 15,0 WNW 16,0 1017,6 83 -
04:09 18,6 15,7 15,0 WNW 15,0 1017,6 83 -
04:14 18,6 15,6 13,0 WNW 15,0 1017,5 83 -
04:19 18,6 15,6 11,0 NW 15,0 1017,5 83 -
04:24 18,5 15,6 13,0 WNW 15,0 1017,4 83 -
04:29 18,5 15,6 15,0 WNW 15,0 1017,4 83 -
04:34 18,5 15,6 16,0 WNW 16,0 1017,4 83 -
04:39 18,5 15,6 13,0 WNW 16,0 1017,5 83 -
04:44 18,5 15,6 15,0 WNW 16,0 1017,5 83 -
04:49 18,6 15,6 15,0 WNW 15,0 1017,4 83 -
04:54 18,6 15,5 13,0 WNW 15,0 1017,4 82 -
04:59 18,7 15,7 15,0 WNW 15,0 1017,4 83 -
05:04 18,7 15,8 16,0 WNW 16,0 1017,4 83 -
05:09 18,7 15,8 21,0 Oeste 21,0 1017,4 83 -
05:14 18,7 15,8 13,0 WNW 21,0 1017,3 83 -
05:19 18,7 15,9 13,0 WNW 21,0 1017,2 84 -
05:24 18,7 15,9 16,0 WNW 16,0 1017,2 84 -
05:29 18,7 15,9 13,0 Oeste 16,0 1017,2 84 -
05:34 18,7 15,9 16,0 WNW 16,0 1017,2 84 -
05:39 18,6 15,8 21,0 Oeste 21,0 1017,2 84 -
05:44 18,7 15,9 21,0 WNW 23,0 1017,2 84 -
05:49 18,7 15,9 19,0 Oeste 23,0 1017,2 84 -
05:54 18,7 15,9 16,0 WNW 23,0 1017,1 84 -
05:59 18,7 15,9 16,0 WNW 21,0 1017,1 84 -
06:04 18,7 15,9 23,0 WNW 23,0 1017,2 84 -
06:09 18,7 16,1 15,0 Oeste 23,0 1017,2 85 -
06:14 18,6 16,1 18,0 Oeste 23,0 1017,2 85 -
06:19 18,6 16,0 19,0 Oeste 19,0 1017,2 85 -
06:24 18,5 15,9 18,0 WNW 19,0 1017,2 85 -
06:29 18,5 15,9 15,0 Oeste 19,0 1017,2 85 -
06:34 18,4 15,9 18,0 WNW 19,0 1017,2 85 -
06:39 18,4 15,9 16,0 Oeste 18,0 1017,2 85 -
06:44 18,4 15,9 16,0 WNW 18,0 1017,3 85 -
06:49 18,4 15,9 16,0 Oeste 18,0 1017,3 85 -
06:54 18,4 15,9 16,0 Oeste 16,0 1017,3 85 -
06:59 18,4 15,9 18,0 WNW 21,0 1017,4 85 -
07:04 18,4 15,9 18,0 WNW 21,0 1017,4 85 -
07:09 18,5 15,9 19,0 WNW 21,0 1017,4 85 -
07:14 18,4 15,9 13,0 Oeste 19,0 1017,4 85 -
07:19 18,4 15,9 16,0 WSW 19,0 1017,3 85 -
07:24 18,4 15,8 15,0 WNW 16,0 1017,4 85 -
07:29 18,4 15,9 15,0 WNW 16,0 1017,4 85 -
07:34 18,4 15,9 16,0 WNW 16,0 1017,5 85 -
07:39 18,6 16,0 16,0 Oeste 16,0 1017,5 85 -
07:44 18,6 15,8 16,0 WNW 18,0 1017,6 84 -
07:49 18,7 15,9 16,0 WNW 19,0 1017,6 84 -
07:54 18,7 15,9 15,0 WNW 19,0 1017,6 84 -
07:59 18,8 16,1 18,0 WNW 19,0 1017,6 84 -
08:04 18,9 16,1 15,0 WNW 18,0 1017,6 84 -
08:09 19,0 16,2 18,0 WNW 18,0 1017,6 84 -
08:14 19,1 16,2 23,0 WNW 23,0 1017,6 84 -
08:19 19,3 16,4 16,0 NW 23,0 1017,7 83 -
08:24 19,6 16,4 16,0 NW 23,0 1017,6 83 -
08:29 19,7 16,6 19,0 NW 21,0 1017,6 82 -
08:34 19,9 16,6 16,0 NW 21,0 1017,8 81 -
08:39 20,1 16,7 16,0 NW 19,0 1017,8 81 -
08:44 20,2 16,7 18,0 NW 18,0 1017,8 80 -
08:49 20,4 16,8 15,0 NW 18,0 1017,8 80 -
08:54 20,4 16,7 18,0 NW 18,0 1017,9 79 -
08:59 20,7 16,8 13,0 WNW 18,0 1018,0 79 -
09:04 20,9 16,9 15,0 WNW 18,0 1018,0 78 -
09:09 20,9 16,9 15,0 WNW 15,0 1018,0 78 -
09:14 20,9 16,6 16,0 WNW 16,0 1018,1 76 -
09:19 21,1 16,7 13,0 NW 16,0 1018,2 76 -
09:24 21,1 16,5 16,0 NW 16,0 1018,3 75 -
09:29 21,4 16,7 10,0 WNW 16,0 1018,3 75 -
09:34 21,5 16,6 11,0 Oeste 16,0 1018,3 74 -
09:39 21,9 16,8 8,0 NW 11,0 1018,3 73 -
09:44 21,9 16,6 11,0 WNW 11,0 1018,3 72 -
09:49 22,1 16,6 16,0 NNW 16,0 1018,2 71 -
09:54 22,1 16,6 11,0 NW 16,0 1018,2 71 -
09:59 22,4 16,8 6,0 WNW 16,0 1018,2 71 -
10:04 22,5 16,7 3,0 WNW 11,0 1018,2 70 -
10:09 22,7 16,4 8,0 Norte 8,0 1018,2 68 -
10:14 22,7 16,4 8,0 NE 8,0 1018,2 68 -
10:19 22,5 16,1 6,0 ENE 8,0 1018,2 67 -
10:24 22,9 16,7 5,0 ENE 8,0 1018,2 68 -
10:29 23,1 17,1 10,0 SE 10,0 1018,1 69 -
10:34 23,2 17,2 5,0 Este 10,0 1018,1 69 -
10:39 23,2 17,2 5,0 Este 10,0 1018,0 69 -
10:44 23,2 17,2 6,0 ESE 6,0 1018,1 69 -
10:49 23,1 17,3 5,0 Este 6,0 1018,1 70 -
10:54 23,0 17,4 6,0 Este 6,0 1018,1 71 -
10:59 23,1 17,5 6,0 ESE 6,0 1018,2 71 -
11:04 23,1 17,7 10,0 SE 11,0 1018,3 72 -
11:09 22,9 17,6 8,0 ESE 11,0 1018,3 72 -
11:14 22,9 17,3 11,0 ESE 11,0 1018,3 71 -
11:19 22,9 17,4 6,0 ENE 11,0 1018,4 71 -
11:24 22,9 17,3 8,0 ENE 8,0 1018,4 71 -
11:29 22,7 17,2 13,0 ENE 15,0 1018,4 72 -
11:34 22,4 17,2 13,0 SSE 15,0 1018,5 72 -
11:39 22,4 17,2 11,0 Este 15,0 1018,5 72 -
11:44 22,3 17,2 10,0 ENE 13,0 1018,5 73 -
11:49 22,6 17,5 6,0 ESE 13,0 1018,5 73 -
11:54 22,7 17,5 11,0 ENE 11,0 1018,5 73 -
11:59 22,7 17,3 6,0 Este 11,0 1018,5 72 -
12:04 22,4 17,3 10,0 ENE 11,0 1018,5 73 -
12:09 22,3 17,4 16,0 NE 16,0 1018,5 74 -
12:14 22,0 17,2 16,0 ENE 16,0 1018,5 76 -
12:19 21,6 17,2 18,0 NE 18,0 1018,5 77 -
12:24 21,2 17,0 19,0 NE 19,0 1018,5 77 -
12:29 21,2 17,1 16,0 ENE 19,0 1018,4 78 -
12:34 21,2 17,0 15,0 ENE 19,0 1018,5 77 -
12:39 20,9 16,8 18,0 Este 18,0 1018,5 78 -
12:44 20,9 16,9 16,0 ENE 18,0 1018,5 78 -
12:49 21,3 17,1 8,0 Este 18,0 1018,5 78 -
12:54 21,4 17,2 8,0 Este 16,0 1018,4 77 -
12:59 21,3 17,1 8,0 ESE 8,0 1018,4 77 -
13:04 21,4 17,2 15,0 Este 15,0 1018,4 77 -
13:09 21,6 17,4 11,0 Este 15,0 1018,4 77 -
13:14 21,6 17,2 10,0 Este 15,0 1018,3 76 -
13:19 21,5 17,1 11,0 Este 11,0 1018,3 76 -
13:24 21,4 17,2 10,0 ENE 11,0 1018,4 77 -
13:29 21,6 17,4 8,0 ENE 11,0 1018,3 77 -
13:34 21,6 17,2 11,0 Este 11,0 1018,2 77 -
13:39 21,7 17,4 19,0 SE 19,0 1018,3 77 -
13:44 21,6 17,2 16,0 SSE 19,0 1018,3 77 -
13:49 21,6 17,4 13,0 SSE 19,0 1018,3 77 -
13:54 21,8 17,6 13,0 SE 19,0 1018,2 77 -
13:59 21,9 17,7 18,0 SSE 18,0 1018,2 77 -
14:04 21,9 17,5 15,0 SSE 18,0 1018,2 76 -
14:09 21,9 17,5 13,0 SE 18,0 1018,1 76 -
14:14 22,2 17,7 10,0 SE 16,0 1018,0 76 -
14:19 22,3 17,6 11,0 ESE 15,0 1018,0 75 -
14:24 22,3 17,7 15,0 SSE 15,0 1017,9 75 -
14:29 22,3 17,4 21,0 SSE 23,0 1017,9 75 -
14:34 21,8 17,3 21,0 Sur 23,0 1017,9 76 -
14:39 21,6 17,2 19,0 SSE 23,0 1017,9 76 -
14:44 21,5 17,1 19,0 SSE 21,0 1017,8 76 -
14:49 21,7 17,5 15,0 SSE 19,0 1017,8 77 -
14:54 21,9 17,4 16,0 SSE 19,0 1017,8 76 -
14:59 21,9 17,3 19,0 SSE 19,0 1017,8 75 -
15:04 21,5 17,2 21,0 SSE 21,0 1017,8 77 -
15:09 21,4 17,4 21,0 Sur 21,0 1017,7 78 -
15:14 21,3 17,6 24,0 Sur 24,0 1017,7 79 -
15:19 21,4 17,8 26,0 Sur 26,0 1017,7 80 -
15:24 21,4 17,8 23,0 Sur 26,0 1017,7 80 -
15:29 21,4 17,6 27,0 Sur 27,0 1017,6 80 -
15:34 20,9 17,5 26,0 Sur 27,0 1017,6 81 -
15:39 21,1 17,4 26,0 SSE 27,0 1017,6 80 -
15:44 21,3 17,7 24,0 SSE 27,0 1017,5 80 -
15:49 21,2 17,6 26,0 SSE 27,0 1017,4 80 -
15:54 21,1 17,4 31,0 SSE 31,0 1017,3 80 -
15:59 20,9 17,4 32,0 SSE 32,0 1017,3 81 -
16:04 20,8 17,4 27,0 SSE 32,0 1017,2 81 -
16:09 21,0 17,6 26,0 SSE 32,0 1017,2 81 -
16:14 21,2 17,8 24,0 Sur 29,0 1017,0 81 -
16:19 21,2 17,6 31,0 SSE 31,0 1017,0 80 -
16:24 21,1 17,7 27,0 SSE 31,0 1016,9 81 -
16:29 21,3 17,7 26,0 Sur 31,0 1016,8 80 -
16:34 21,3 17,7 26,0 SSE 27,0 1016,8 80 -
16:39 21,1 17,5 31,0 SSE 31,0 1016,7 81 -
16:44 20,9 17,6 29,0 Sur 31,0 1016,7 81 -
16:49 20,9 17,6 26,0 Sur 31,0 1016,7 81 -
16:54 21,2 17,7 27,0 Sur 29,0 1016,6 81 -
16:59 21,3 17,6 27,0 Sur 29,0 1016,4 80 -
17:04 21,3 17,6 23,0 SSE 29,0 1016,4 80 -
17:09 21,3 17,5 24,0 SSE 29,0 1016,4 79 -
17:14 21,2 17,4 23,0 SSE 24,0 1016,2 79 -
17:19 21,2 17,4 32,0 Sur 32,0 1016,2 80 -
17:24 21,0 17,4 23,0 SSE 32,0 1016,2 80 -
17:29 21,2 17,6 23,0 SSE 32,0 1016,1 80 -
17:34 21,4 17,8 21,0 Sur 24,0 1016,1 80 -
17:39 21,4 17,8 24,0 Sur 26,0 1016,0 80 -
17:44 21,3 17,9 23,0 Sur 26,0 1015,9 81 -
17:49 21,3 17,9 21,0 Sur 26,0 1015,9 81 -
17:54 21,2 17,8 24,0 Sur 26,0 1016,0 81 -
17:59 21,2 17,8 23,0 Sur 26,0 1016,0 81 -
18:04 21,2 17,8 24,0 Sur 26,0 1016,0 81 -
18:09 21,1 17,7 19,0 Sur 26,0 1016,0 81 -
18:14 21,1 17,9 23,0 Sur 24,0 1016,0 82 -
18:19 21,1 17,9 23,0 Sur 26,0 1016,0 82 -
18:24 21,2 17,9 24,0 Sur 26,0 1016,0 82 -
18:29 21,2 18,0 23,0 Sur 26,0 1016,0 82 -
18:34 21,2 18,0 21,0 Sur 26,0 1016,0 82 -
18:39 21,3 18,1 19,0 SSE 26,0 1016,0 82 -
18:44 21,2 18,0 24,0 Sur 24,0 1015,9 82 -
Diario Resumen para Sabado May 25 2024
Hora Temp. ( °C ) Punto de rocio. ( °C ) Viento ( km/h ) Dirección Ráfaga ( km/h ) Presión ( hPa ) Humid.( % ) Lluvia ( cm )
Max23,2 18,1 32,0 WNW ( 1074/3524 ) 32,0 1018,5 85 -
Media20,4 16,7 15,7 WNW #78/225 18,0 1017,6 80 -
Min18,4 15,5 3,0   6,0 1015,9 67 -
Diario Tabular detalles de Sabado May 25 2024
Hora Temp. ( °C ) Punto de rocio. ( °C ) Viento ( km/h ) Dirección Ráfaga ( km/h ) Presión ( hPa ) Humid.( % ) Lluvia ( cm )
00:04 19,4 16,5 8,0 WNW 11,0 1017,8 83 -
00:09 19,3 16,4 6,0 WNW 10,0 1017,8 83 -
00:14 19,3 16,3 8,0 WNW 8,0 1017,9 83 -
00:19 19,1 15,9 5,0 WNW 8,0 1017,9 82 -
00:24 19,1 15,9 13,0 WNW 13,0 1017,8 82 -
00:29 19,2 15,8 13,0 WNW 13,0 1017,9 81 -
00:34 19,2 15,9 13,0 WNW 13,0 1017,9 81 -
00:39 19,3 15,9 11,0 WNW 13,0 1017,9 81 -
00:44 19,3 15,7 10,0 WNW 13,0 1017,9 80 -
00:49 19,3 15,9 8,0 WNW 11,0 1017,9 81 -
00:54 19,3 16,0 11,0 WNW 11,0 1018,0 81 -
00:59 19,3 16,0 11,0 WNW 11,0 1018,0 81 -
01:04 19,3 16,1 13,0 WNW 13,0 1017,9 82 -
01:09 19,2 16,1 11,0 NW 13,0 1018,0 82 -
01:14 19,2 16,1 8,0 WNW 13,0 1017,9 82 -
01:19 19,2 16,0 11,0 WNW 13,0 1017,9 82 -
01:24 19,2 16,2 15,0 WNW 15,0 1017,9 83 -
01:29 19,1 16,2 13,0 WNW 15,0 1017,9 83 -
01:34 19,2 16,2 15,0 WNW 15,0 1017,9 83 -
01:39 19,2 16,3 15,0 WNW 16,0 1017,8 83 -
01:44 19,2 16,3 18,0 Oeste 18,0 1017,8 83 -
01:49 19,2 16,4 16,0 Oeste 18,0 1017,8 84 -
01:54 19,2 16,4 19,0 Oeste 21,0 1017,8 84 -
01:59 19,2 16,4 18,0 WNW 21,0 1017,8 84 -
02:04 19,2 16,4 15,0 WNW 21,0 1017,8 84 -
02:09 19,1 16,3 15,0 WNW 18,0 1017,8 84 -
02:14 19,0 16,4 15,0 WNW 15,0 1017,8 85 -
02:19 19,0 16,4 10,0 Oeste 15,0 1017,9 85 -
02:24 18,9 16,4 10,0 Oeste 15,0 1017,9 85 -
02:29 18,9 16,4 13,0 WNW 13,0 1017,9 85 -
02:34 18,9 16,3 13,0 Oeste 13,0 1017,9 85 -
02:39 18,9 16,3 13,0 Oeste 13,0 1017,8 85 -
02:44 18,9 16,3 11,0 WNW 13,0 1017,8 85 -
02:49 18,9 16,3 13,0 WNW 13,0 1017,8 85 -
02:54 18,9 16,1 10,0 Oeste 13,0 1017,8 84 -
02:59 18,8 16,1 8,0 Oeste 13,0 1017,8 84 -
03:04 18,8 16,0 8,0 WNW 10,0 1017,8 84 -
03:09 18,7 15,9 13,0 Oeste 15,0 1017,8 84 -
03:14 18,6 15,8 11,0 Oeste 15,0 1017,9 84 -
03:19 18,6 15,8 11,0 WNW 15,0 1017,9 84 -
03:24 18,6 15,8 11,0 WNW 13,0 1017,9 84 -
03:29 18,6 15,8 11,0 WNW 13,0 1017,9 84 -
03:34 18,6 15,8 11,0 Oeste 13,0 1017,9 84 -
03:39 18,6 15,8 11,0 WNW 13,0 1017,8 84 -
03:44 18,6 15,8 13,0 WNW 13,0 1017,8 84 -
03:49 18,6 15,8 15,0 Oeste 16,0 1017,7 84 -
03:54 18,6 15,8 16,0 WNW 16,0 1017,7 84 -
03:59 18,6 15,7 15,0 WNW 16,0 1017,7 83 -
04:04 18,6 15,7 15,0 WNW 16,0 1017,6 83 -
04:09 18,6 15,7 15,0 WNW 15,0 1017,6 83 -
04:14 18,6 15,6 13,0 WNW 15,0 1017,5 83 -
04:19 18,6 15,6 11,0 NW 15,0 1017,5 83 -
04:24 18,5 15,6 13,0 WNW 15,0 1017,4 83 -
04:29 18,5 15,6 15,0 WNW 15,0 1017,4 83 -
04:34 18,5 15,6 16,0 WNW 16,0 1017,4 83 -
04:39 18,5 15,6 13,0 WNW 16,0 1017,5 83 -
04:44 18,5 15,6 15,0 WNW 16,0 1017,5 83 -
04:49 18,6 15,6 15,0 WNW 15,0 1017,4 83 -
04:54 18,6 15,5 13,0 WNW 15,0 1017,4 82 -
04:59 18,7 15,7 15,0 WNW 15,0 1017,4 83 -
05:04 18,7 15,8 16,0 WNW 16,0 1017,4 83 -
05:09 18,7 15,8 21,0 Oeste 21,0 1017,4 83 -
05:14 18,7 15,8 13,0 WNW 21,0 1017,3 83 -
05:19 18,7 15,9 13,0 WNW 21,0 1017,2 84 -
05:24 18,7 15,9 16,0 WNW 16,0 1017,2 84 -
05:29 18,7 15,9 13,0 Oeste 16,0 1017,2 84 -
05:34 18,7 15,9 16,0 WNW 16,0 1017,2 84 -
05:39 18,6 15,8 21,0 Oeste 21,0 1017,2 84 -
05:44 18,7 15,9 21,0 WNW 23,0 1017,2 84 -
05:49 18,7 15,9 19,0 Oeste 23,0 1017,2 84 -
05:54 18,7 15,9 16,0 WNW 23,0 1017,1 84 -
05:59 18,7 15,9 16,0 WNW 21,0 1017,1 84 -
06:04 18,7 15,9 23,0 WNW 23,0 1017,2 84 -
06:09 18,7 16,1 15,0 Oeste 23,0 1017,2 85 -
06:14 18,6 16,1 18,0 Oeste 23,0 1017,2 85 -
06:19 18,6 16,0 19,0 Oeste 19,0 1017,2 85 -
06:24 18,5 15,9 18,0 WNW 19,0 1017,2 85 -
06:29 18,5 15,9 15,0 Oeste 19,0 1017,2 85 -
06:34 18,4 15,9 18,0 WNW 19,0 1017,2 85 -
06:39 18,4 15,9 16,0 Oeste 18,0 1017,2 85 -
06:44 18,4 15,9 16,0 WNW 18,0 1017,3 85 -
06:49 18,4 15,9 16,0 Oeste 18,0 1017,3 85 -
06:54 18,4 15,9 16,0 Oeste 16,0 1017,3 85 -
06:59 18,4 15,9 18,0 WNW 21,0 1017,4 85 -
07:04 18,4 15,9 18,0 WNW 21,0 1017,4 85 -
07:09 18,5 15,9 19,0 WNW 21,0 1017,4 85 -
07:14 18,4 15,9 13,0 Oeste 19,0 1017,4 85 -
07:19 18,4 15,9 16,0 WSW 19,0 1017,3 85 -
07:24 18,4 15,8 15,0 WNW 16,0 1017,4 85 -
07:29 18,4 15,9 15,0 WNW 16,0 1017,4 85 -
07:34 18,4 15,9 16,0 WNW 16,0 1017,5 85 -
07:39 18,6 16,0 16,0 Oeste 16,0 1017,5 85 -
07:44 18,6 15,8 16,0 WNW 18,0 1017,6 84 -
07:49 18,7 15,9 16,0 WNW 19,0 1017,6 84 -
07:54 18,7 15,9 15,0 WNW 19,0 1017,6 84 -
07:59 18,8 16,1 18,0 WNW 19,0 1017,6 84 -
08:04 18,9 16,1 15,0 WNW 18,0 1017,6 84 -
08:09 19,0 16,2 18,0 WNW 18,0 1017,6 84 -
08:14 19,1 16,2 23,0 WNW 23,0 1017,6 84 -
08:19 19,3 16,4 16,0 NW 23,0 1017,7 83 -
08:24 19,6 16,4 16,0 NW 23,0 1017,6 83 -
08:29 19,7 16,6 19,0 NW 21,0 1017,6 82 -
08:34 19,9 16,6 16,0 NW 21,0 1017,8 81 -
08:39 20,1 16,7 16,0 NW 19,0 1017,8 81 -
08:44 20,2 16,7 18,0 NW 18,0 1017,8 80 -
08:49 20,4 16,8 15,0 NW 18,0 1017,8 80 -
08:54 20,4 16,7 18,0 NW 18,0 1017,9 79 -
08:59 20,7 16,8 13,0 WNW 18,0 1018,0 79 -
09:04 20,9 16,9 15,0 WNW 18,0 1018,0 78 -
09:09 20,9 16,9 15,0 WNW 15,0 1018,0 78 -
09:14 20,9 16,6 16,0 WNW 16,0 1018,1 76 -
09:19 21,1 16,7 13,0 NW 16,0 1018,2 76 -
09:24 21,1 16,5 16,0 NW 16,0 1018,3 75 -
09:29 21,4 16,7 10,0 WNW 16,0 1018,3 75 -
09:34 21,5 16,6 11,0 Oeste 16,0 1018,3 74 -
09:39 21,9 16,8 8,0 NW 11,0 1018,3 73 -
09:44 21,9 16,6 11,0 WNW 11,0 1018,3 72 -
09:49 22,1 16,6 16,0 NNW 16,0 1018,2 71 -
09:54 22,1 16,6 11,0 NW 16,0 1018,2 71 -
09:59 22,4 16,8 6,0 WNW 16,0 1018,2 71 -
10:04 22,5 16,7 3,0 WNW 11,0 1018,2 70 -
10:09 22,7 16,4 8,0 Norte 8,0 1018,2 68 -
10:14 22,7 16,4 8,0 NE 8,0 1018,2 68 -
10:19 22,5 16,1 6,0 ENE 8,0 1018,2 67 -
10:24 22,9 16,7 5,0 ENE 8,0 1018,2 68 -
10:29 23,1 17,1 10,0 SE 10,0 1018,1 69 -
10:34 23,2 17,2 5,0 Este 10,0 1018,1 69 -
10:39 23,2 17,2 5,0 Este 10,0 1018,0 69 -
10:44 23,2 17,2 6,0 ESE 6,0 1018,1 69 -
10:49 23,1 17,3 5,0 Este 6,0 1018,1 70 -
10:54 23,0 17,4 6,0 Este 6,0 1018,1 71 -
10:59 23,1 17,5 6,0 ESE 6,0 1018,2 71 -
11:04 23,1 17,7 10,0 SE 11,0 1018,3 72 -
11:09 22,9 17,6 8,0 ESE 11,0 1018,3 72 -
11:14 22,9 17,3 11,0 ESE 11,0 1018,3 71 -
11:19 22,9 17,4 6,0 ENE 11,0 1018,4 71 -
11:24 22,9 17,3 8,0 ENE 8,0 1018,4 71 -
11:29 22,7 17,2 13,0 ENE 15,0 1018,4 72 -
11:34 22,4 17,2 13,0 SSE 15,0 1018,5 72 -
11:39 22,4 17,2 11,0 Este 15,0 1018,5 72 -
11:44 22,3 17,2 10,0 ENE 13,0 1018,5 73 -
11:49 22,6 17,5 6,0 ESE 13,0 1018,5 73 -
11:54 22,7 17,5 11,0 ENE 11,0 1018,5 73 -
11:59 22,7 17,3 6,0 Este 11,0 1018,5 72 -
12:04 22,4 17,3 10,0 ENE 11,0 1018,5 73 -
12:09 22,3 17,4 16,0 NE 16,0 1018,5 74 -
12:14 22,0 17,2 16,0 ENE 16,0 1018,5 76 -
12:19 21,6 17,2 18,0 NE 18,0 1018,5 77 -
12:24 21,2 17,0 19,0 NE 19,0 1018,5 77 -
12:29 21,2 17,1 16,0 ENE 19,0 1018,4 78 -
12:34 21,2 17,0 15,0 ENE 19,0 1018,5 77 -
12:39 20,9 16,8 18,0 Este 18,0 1018,5 78 -
12:44 20,9 16,9 16,0 ENE 18,0 1018,5 78 -
12:49 21,3 17,1 8,0 Este 18,0 1018,5 78 -
12:54 21,4 17,2 8,0 Este 16,0 1018,4 77 -
12:59 21,3 17,1 8,0 ESE 8,0 1018,4 77 -
13:04 21,4 17,2 15,0 Este 15,0 1018,4 77 -
13:09 21,6 17,4 11,0 Este 15,0 1018,4 77 -
13:14 21,6 17,2 10,0 Este 15,0 1018,3 76 -
13:19 21,5 17,1 11,0 Este 11,0 1018,3 76 -
13:24 21,4 17,2 10,0 ENE 11,0 1018,4 77 -
13:29 21,6 17,4 8,0 ENE 11,0 1018,3 77 -
13:34 21,6 17,2 11,0 Este 11,0 1018,2 77 -
13:39 21,7 17,4 19,0 SE 19,0 1018,3 77 -
13:44 21,6 17,2 16,0 SSE 19,0 1018,3 77 -
13:49 21,6 17,4 13,0 SSE 19,0 1018,3 77 -
13:54 21,8 17,6 13,0 SE 19,0 1018,2 77 -
13:59 21,9 17,7 18,0 SSE 18,0 1018,2 77 -
14:04 21,9 17,5 15,0 SSE 18,0 1018,2 76 -
14:09 21,9 17,5 13,0 SE 18,0 1018,1 76 -
14:14 22,2 17,7 10,0 SE 16,0 1018,0 76 -
14:19 22,3 17,6 11,0 ESE 15,0 1018,0 75 -
14:24 22,3 17,7 15,0 SSE 15,0 1017,9 75 -
14:29 22,3 17,4 21,0 SSE 23,0 1017,9 75 -
14:34 21,8 17,3 21,0 Sur 23,0 1017,9 76 -
14:39 21,6 17,2 19,0 SSE 23,0 1017,9 76 -
14:44 21,5 17,1 19,0 SSE 21,0 1017,8 76 -
14:49 21,7 17,5 15,0 SSE 19,0 1017,8 77 -
14:54 21,9 17,4 16,0 SSE 19,0 1017,8 76 -
14:59 21,9 17,3 19,0 SSE 19,0 1017,8 75 -
15:04 21,5 17,2 21,0 SSE 21,0 1017,8 77 -
15:09 21,4 17,4 21,0 Sur 21,0 1017,7 78 -
15:14 21,3 17,6 24,0 Sur 24,0 1017,7 79 -
15:19 21,4 17,8 26,0 Sur 26,0 1017,7 80 -
15:24 21,4 17,8 23,0 Sur 26,0 1017,7 80 -
15:29 21,4 17,6 27,0 Sur 27,0 1017,6 80 -
15:34 20,9 17,5 26,0 Sur 27,0 1017,6 81 -
15:39 21,1 17,4 26,0 SSE 27,0 1017,6 80 -
15:44 21,3 17,7 24,0 SSE 27,0 1017,5 80 -
15:49 21,2 17,6 26,0 SSE 27,0 1017,4 80 -
15:54 21,1 17,4 31,0 SSE 31,0 1017,3 80 -
15:59 20,9 17,4 32,0 SSE 32,0 1017,3 81 -
16:04 20,8 17,4 27,0 SSE 32,0 1017,2 81 -
16:09 21,0 17,6 26,0 SSE 32,0 1017,2 81 -
16:14 21,2 17,8 24,0 Sur 29,0 1017,0 81 -
16:19 21,2 17,6 31,0 SSE 31,0 1017,0 80 -
16:24 21,1 17,7 27,0 SSE 31,0 1016,9 81 -
16:29 21,3 17,7 26,0 Sur 31,0 1016,8 80 -
16:34 21,3 17,7 26,0 SSE 27,0 1016,8 80 -
16:39 21,1 17,5 31,0 SSE 31,0 1016,7 81 -
16:44 20,9 17,6 29,0 Sur 31,0 1016,7 81 -
16:49 20,9 17,6 26,0 Sur 31,0 1016,7 81 -
16:54 21,2 17,7 27,0 Sur 29,0 1016,6 81 -
16:59 21,3 17,6 27,0 Sur 29,0 1016,4 80 -
17:04 21,3 17,6 23,0 SSE 29,0 1016,4 80 -
17:09 21,3 17,5 24,0 SSE 29,0 1016,4 79 -
17:14 21,2 17,4 23,0 SSE 24,0 1016,2 79 -
17:19 21,2 17,4 32,0 Sur 32,0 1016,2 80 -
17:24 21,0 17,4 23,0 SSE 32,0 1016,2 80 -
17:29 21,2 17,6 23,0 SSE 32,0 1016,1 80 -
17:34 21,4 17,8 21,0 Sur 24,0 1016,1 80 -
17:39 21,4 17,8 24,0 Sur 26,0 1016,0 80 -
17:44 21,3 17,9 23,0 Sur 26,0 1015,9 81 -
17:49 21,3 17,9 21,0 Sur 26,0 1015,9 81 -
17:54 21,2 17,8 24,0 Sur 26,0 1016,0 81 -
17:59 21,2 17,8 23,0 Sur 26,0 1016,0 81 -
18:04 21,2 17,8 24,0 Sur 26,0 1016,0 81 -
18:09 21,1 17,7 19,0 Sur 26,0 1016,0 81 -
18:14 21,1 17,9 23,0 Sur 24,0 1016,0 82 -
18:19 21,1 17,9 23,0 Sur 26,0 1016,0 82 -
18:24 21,2 17,9 24,0 Sur 26,0 1016,0 82 -
18:29 21,2 18,0 23,0 Sur 26,0 1016,0 82 -
18:34 21,2 18,0 21,0 Sur 26,0 1016,0 82 -
18:39 21,3 18,1 19,0 SSE 26,0 1016,0 82 -
18:44 21,2 18,0 24,0 Sur 24,0 1015,9 82 -

Descarga tu copia de esta fecha  de WeatherUnderground

Tus datos se guardaran en Weather Underground. Original script de Jim McMurry. Reescrito para uso de plantilla Leuven-Template